Location: A�t �Alizem
(31.2076°N, 8.7872°W)
Time: 15:38:02
(UTC+00:00)

Cosmos 1151 Rocket - Pass Details

Date: 27 November 2020
Orbit: 593 x 615 km, 82.5° (Epoch: 25 January)

Event Time Altitude Azimuth Distance (km) Brightness Sun altitude
Rises 17:48:38 0° 165° (SSE) 2,839 6.6 -4.0°
Reaches altitude 10° 17:50:59 10° 156° (SSE) 1,936 5.6 -4.4°
Maximum altitude 17:54:51 34° 91° (E) 987 3.7 -5.2°
Drops below altitude 10° 17:58:44 10° 26° (NNE) 1,937 5.2 -6.0°
Sets 18:01:05 0° 18° (NNE) 2,840 6.1 -6.4°
